Location: Waco, TX
(31.5480°N, 97.1670°W)
Time: 08:47:32
(UTC-05:00)

ISS - Pass Details

Date: 16 October 2019
Orbit: 411 x 421 km, 51.6° (Epoch: 18 October)

Event Time Altitude Azimuth Distance (km) Brightness Sun altitude
Rises 09:07:46 0° 208° (SSW) 2,348 0.0 18.6°
Reaches altitude 10° 09:09:56 10° 200° (SSW) 1,487 -0.9 19.0°
Maximum altitude 09:13:04 38° 131° (SE) 657 -1.2 19.6°
Drops below altitude 10° 09:16:11 10° 61° (ENE) 1,490 -0.3 20.2°
Sets 09:18:22 0° 53° (NE) 2,354 0.4 20.7°
